Starlink 11471

operational
NORAD ID: 62225 Int'l Des: 2024-231 Owner: SPXS Country: US Constellation: starlink
LEOCIRCULAR

About Starlink 11471

Description loading...

Live Position

Loading 3D Globe...

Upcoming Passes

Altitude History

Altitude vs Time

uPlot chart will show altitude changes over time

Two-Line Element Set

1 62225U 24231H 25259.74009306 .00209697 00000-0 16899-2 0 9999
2 62225 53.1560 238.5719 0001346 96.0517 264.0654 15.69744251 46096
Epoch: Sep 16, 2025 • Age: 26 hours

Current Status

Altitude 367.8 km
Velocity 7.69 km/s
Sub-Earth Point -29.15°S, 81.93°W
Launch Date Dec 5, 2024
Age 0.7 years
Type internet

Technical Details

Classification Payload
Mass 960.00 kg
Dry Mass 910.00 kg
Total Mass 960.00 kg
Length 0.30 m
Diameter 4.10 m
Span 29.00 m
Shape Box + pan
Manufacturer SPXS
Bus Type Starlink V2MD
Phase Status In Orbit
Owner/State SPXS/US

Large Constellations

Loading constellations...